EW1728 Weather Reports


time (UTC)temp
C
wind
direction
speed
KPH
gust
KPH
rain 1hr
cm
rain 24hr
cm
rain mn
cm
humidity
%
barometer
mb
20260510184143 27 342 0.0 0.0 0.00 0.00 0.00 57 1014.2
20260510184116 27 342 0.0 1.6 0.00 0.00 0.00 54 1014.2
20260510183056 27 342 0.0 3.2 0.00 0.00 0.00 53 1014.2
20260510183052 28 344 0.0 3.2 0.00 0.00 0.00 49 1014.2
20260510182053 27 222 0.0 1.6 0.00 0.00 0.00 52 1014.2
20260510181550 27 13 0.0 3.2 0.00 0.00 0.00 57 1014.2
20260510181054 27 91 4.8 11.3 0.00 0.00 0.00 52 1014.3
20260510181050 26 82 3.2 9.7 0.00 0.00 0.00 54 1014.2
20260510180048 27 94 3.2 11.3 0.00 0.00 0.00 50 1014.4
20260510175548 28 89 0.0 6.4 0.00 0.00 0.00 47 1014.5
20260510175050 28 45 0.0 6.4 0.00 0.00 0.00 50 1014.4
20260510175046 28 134 0.0 3.2 0.00 0.00 0.00 47 1014.4
20260510174044 28 139 0.0 3.2 0.00 0.00 0.00 51 1014.5
20260510173542 28 345 0.0 3.2 0.00 0.00 0.00 50 1014.4
20260510173028 29 3 0.0 3.2 0.00 0.00 0.00 53 1014.5
20260510172527 28 3 1.6 4.8 0.00 0.00 0.00 52 1014.5
20260510172022 28 81 1.6 4.8 0.00 0.00 0.00 50 1014.5
20260510171526 28 100 1.6 4.8 0.00 0.00 0.00 47 1014.6
20260510171522 28 347 1.6 4.8 0.00 0.00 0.00 48 1014.5
20260510170520 28 103 0.0 4.8 0.00 0.00 0.00 49 1014.6
20260510170020 28 236 0.0 3.2 0.00 0.00 0.00 55 1014.6
20260510165518 28 274 0.0 3.2 0.00 0.00 0.00 51 1014.5
20260510165002 27 125 1.6 3.2 0.00 0.00 0.00 52 1014.6
20260510164502 27 88 1.6 4.8 0.00 0.00 0.00 52 1014.6
20260510164000 27 260 1.6 4.8 0.00 0.00 0.00 52 1014.6
20260510163452 26 283 1.6 4.8 0.00 0.00 0.00 56 1014.7
20260510162952 26 25 1.6 3.2 0.00 0.00 0.00 57 1014.8
20260510162452 26 91 1.6 6.4 0.00 0.00 0.00 57 1014.7
20260510161952 26 78 1.6 6.4 0.00 0.00 0.00 57 1014.7
20260510161442 25 79 1.6 4.8 0.00 0.00 0.00 56 1014.7
20260510160938 26 99 0.0 3.2 0.00 0.00 0.00 60 1014.8
20260510160929 25 359 1.6 6.4 0.00 0.00 0.00 57 1014.8
20260510155928 25 333 1.6 6.4 0.00 0.00 0.00 63 1014.9
20260510155428 25 51 1.6 6.4 0.00 0.00 0.00 60 1014.9
20260510154928 25 83 1.6 6.4 0.00 0.00 0.00 61 1015.0
20260510154427 25 223 1.6 4.8 0.00 0.00 0.00 62 1015.1
20260510153929 25 103 1.6 8.0 0.00 0.00 0.00 62 1015.1
20260510153406 24 226 1.6 8.0 0.00 0.00 0.00 64 1015.1
20260510152910 24 20 1.6 6.4 0.00 0.00 0.00 65 1015.0
20260510152906 24 67 0.0 3.2 0.00 0.00 0.00 63 1015.1
20260510151858 23 18 3.2 8.0 0.00 0.00 0.00 68 1014.9
20260510151354 23 68 3.2 9.7 0.00 0.00 0.00 68 1015.0
20260510150855 23 67 3.2 9.7 0.00 0.00 0.00 74 1014.9
20260510150338 23 71 3.2 9.7 0.00 0.00 0.00 71 1014.9
20260510145836 23 96 1.6 8.0 0.00 0.00 0.00 72 1014.8
20260510145334 23 70 0.0 4.8 0.00 0.00 0.00 74 1014.9
20260510144821 22 42 1.6 6.4 0.00 0.00 0.00 74 1014.8
20260510144322 22 319 1.6 6.4 0.00 0.00 0.00 76 1014.8
20260510143823 22 37 1.6 8.0 0.00 0.00 0.00 77 1014.8
20260510143322 22 44 1.6 8.0 0.00 0.00 0.00 77 1014.8
20260510142818 22 96 0.0 4.8 0.00 0.00 0.00 81 1014.8
20260510142322 21 340 1.6 6.4 0.00 0.00 0.00 80 1014.7
20260510142318 21 64 0.0 1.6 0.00 0.00 0.00 81 1014.7
20260510141310 21 338 1.6 6.4 0.00 0.00 0.00 81 1014.9
20260510140811 21 32 0.0 6.4 0.00 0.00 0.00 83 1014.9
20260510140306 21 12 0.0 1.6 0.00 0.00 0.00 86 1014.9
20260510135806 21 15 0.0 1.6 0.00 0.00 0.00 86 1014.9
20260510135306 20 71 0.0 3.2 0.00 0.00 0.00 87 1014.8
20260510134752 20 71 0.0 3.2 0.00 0.00 0.00 87 1014.8
20260510134744 20 223 0.0 1.6 0.00 0.00 0.00 88 1014.7
20260510133743 20 341 0.0 0.0 0.00 0.00 0.00 89 1014.7
20260510133236 20 103 0.0 0.0 0.00 0.00 0.00 89 1014.6
20260510132736 19 230 0.0 0.0 0.00 0.00 0.00 90 1014.6
20260510132234 19 111 0.0 0.0 0.00 0.00 0.00 92 1014.5
20260510131730 18 37 0.0 0.0 0.00 0.00 0.00 95 1014.5
20260510131205 18 37 0.0 0.0 0.00 0.00 0.00 96 1014.4
20260510130646 18 37 0.0 0.0 0.00 0.00 0.00 96 1014.4
20260510130149 18 94 0.0 0.0 0.00 0.00 0.00 98 1014.3
20260510130145 18 112 0.0 0.0 0.00 0.00 0.00 97 1014.4
20260510125140 17 92 0.0 0.0 0.00 0.00 0.00 99 1014.2
20260510124600 17 92 0.0 0.0 0.00 0.00 0.00 99 1014.2
20260510124050 17 92 0.0 0.0 0.00 0.00 0.00 99 1014.1
20260510123532 17 92 0.0 0.0 0.00 0.00 0.00 100 1014.1
20260510123030 17 51 0.0 0.0 0.00 0.00 0.00 100 1014.0
20260510122534 17 51 0.0 0.0 0.00 0.00 0.00 100 1014.0
20260510122530 17 51 0.0 0.0 0.00 0.00 0.00 100 1014.0
20260510121603 16 51 0.0 0.0 0.00 0.00 0.00 100 1014.0
20260510121529 16 51 0.0 0.0 0.00 0.00 0.00 100 1014.0
20260510121500 16 51 0.0 0.0 0.00 0.00 0.00 100 1014.0
20260510115958 16 51 0.0 0.0 0.00 0.00 0.00 100 1013.9
20260510115456 16 51 0.0 0.0 0.00 0.00 0.00 100 1013.9
20260510115434 16 51 0.0 0.0 0.00 0.00 0.00 100 1013.8
20260510114421 16 51 0.0 0.0 0.00 0.00 0.00 100 1013.8
20260510113919 16 51 0.0 0.0 0.00 0.00 0.00 100 1013.6
20260510113912 16 51 0.0 0.0 0.00 0.00 0.00 100 1013.5
20260510112903 16 51 0.0 0.0 0.00 0.00 0.00 100 1013.5
20260510112408 15 51 0.0 0.0 0.00 0.00 0.00 100 1013.3
20260510112404 15 51 0.0 0.0 0.00 0.00 0.00 100 1013.3
20260510111327 15 51 0.0 0.0 0.00 0.00 0.00 100 1013.3
20260510110829 15 51 0.0 0.0 0.00 0.00 0.00 100 1013.3
20260510110825 15 51 0.0 0.0 0.00 0.00 0.00 100 1013.1
20260510110427 15 51 0.0 0.0 0.00 0.00 0.00 100 1013.2
20260510105927 15 51 0.0 0.0 0.00 0.00 0.00 100 1013.0
20260510104754 15 51 0.0 0.0 0.00 0.00 0.00 100 1013.0
20260510104237 15 51 0.0 0.0 0.00 0.00 0.00 100 1012.8
20260510103729 15 51 0.0 0.0 0.00 0.00 0.00 100 1012.7
20260510103201 15 51 0.0 0.0 0.00 0.00 0.00 100 1012.6
20260510102637 15 51 0.0 0.0 0.00 0.00 0.00 100 1012.5
20260510102138 15 51 0.0 0.0 0.00 0.00 0.00 100 1012.4
20260510102134 15 51 0.0 0.0 0.00 0.00 0.00 100 1012.5
20260510101126 15 51 0.0 0.0 0.00 0.00 0.00 100 1012.3
20260510100530 15 51 0.0 0.0 0.00 0.00 0.00 100 1012.3
20260510100029 15 51 0.0 0.0 0.00 0.00 0.00 100 1012.3
20260510100024 15 51 0.0 0.0 0.00 0.00 0.00 99 1012.1
20260510095024 15 51 0.0 0.0 0.00 0.00 0.00 99 1012.0
20260510094524 15 51 0.0 0.0 0.00 0.00 0.00 99 1012.0
20260510094520 15 51 0.0 0.0 0.00 0.00 0.00 99 1012.0
20260510093955 15 51 0.0 0.0 0.00 0.00 0.00 99 1012.0
20260510092953 15 51 0.0 0.0 0.00 0.00 0.00 99 1011.9
20260510092432 15 51 0.0 0.0 0.00 0.00 0.00 99 1011.9
20260510091927 15 51 0.0 0.0 0.00 0.00 0.00 99 1011.8
20260510091425 15 51 0.0 0.0 0.00 0.00 0.00 99 1011.7
20260510090924 15 51 0.0 0.0 0.00 0.00 0.00 99 1011.6
20260510090347 15 51 0.0 0.0 0.00 0.00 0.00 99 1011.6
20260510085834 15 51 0.0 0.0 0.00 0.00 0.00 99 1011.5
20260510085333 15 51 0.0 0.0 0.00 0.00 0.00 99 1011.3
20260510084833 15 51 0.0 0.0 0.00 0.00 0.00 99 1011.3
20260510084334 15 51 0.0 0.0 0.00 0.00 0.00 100 1011.2
20260510083825 15 51 0.0 0.0 0.00 0.00 0.00 100 1011.2
20260510083808 15 51 0.0 0.0 0.00 0.00 0.00 99 1011.3
20260510082757 15 51 0.0 0.0 0.00 0.00 0.00 99 1011.3
20260510082257 15 51 0.0 0.0 0.00 0.00 0.00 99 1011.3
20260510081758 15 51 0.0 0.0 0.00 0.00 0.00 99 1011.3
20260510081233 15 51 0.0 0.0 0.00 0.00 0.00 99 1011.3
20260510080733 15 51 0.0 0.0 0.00 0.00 0.00 99 1011.2
20260510080230 15 51 0.0 0.0 0.00 0.00 0.00 99 1011.2
20260510080225 15 51 0.0 0.0 0.00 0.00 0.00 99 1011.3
20260510075156 15 51 0.0 0.0 0.00 0.00 0.00 99 1011.1
20260510074630 15 51 0.0 0.0 0.00 0.00 0.00 99 1011.1
20260510074021 15 51 0.0 0.0 0.00 0.00 0.00 99 1011.1
20260510073521 15 51 0.0 0.0 0.00 0.00 0.00 99 1011.1
20260510073023 16 51 0.0 0.0 0.00 0.00 0.00 99 1011.1
20260510073019 16 51 0.0 0.0 0.00 0.00 0.00 99 1011.1
20260510072011 16 51 0.0 0.0 0.00 0.00 0.00 99 1011.1
20260510071452 16 51 0.0 0.0 0.00 0.00 0.00 99 1011.0
20260510070931 16 51 0.0 0.0 0.00 0.00 0.00 99 1011.0
20260510070927 15 51 0.0 0.0 0.00 0.00 0.00 99 1011.1
20260510065927 15 51 0.0 0.0 0.00 0.00 0.00 99 1011.2
20260510065427 16 51 0.0 0.0 0.00 0.00 0.00 99 1011.2
20260510064835 16 51 0.0 0.0 0.00 0.00 0.00 99 1011.2
20260510064335 16 51 0.0 0.0 0.00 0.00 0.00 99 1011.1
20260510063831 16 51 0.0 0.0 0.00 0.00 0.00 99 1011.0
20260510063327 16 51 0.0 0.0 0.00 0.00 0.00 99 1011.0
20260510062827 16 51 0.0 0.0 0.00 0.00 0.00 99 1010.9
20260510062325 16 51 0.0 0.0 0.00 0.00 0.00 99 1010.9
20260510061740 16 51 0.0 0.0 0.00 0.00 0.00 99 1010.9
20260510061227 16 51 0.0 0.0 0.00 0.00 0.00 99 1010.9
20260510060723 16 51 0.0 0.0 0.00 0.00 0.00 99 1011.0
20260510060707 16 51 0.0 0.0 0.00 0.00 0.00 99 1011.0
20260510055655 16 51 0.0 0.0 0.00 0.00 0.00 99 1011.1
20260510055155 16 51 0.0 0.0 0.00 0.00 0.00 99 1011.2
20260510054629 16 51 0.0 0.0 0.00 0.00 0.00 99 1011.2
20260510054045 16 51 0.0 0.0 0.00 0.00 0.00 99 1011.2
20260510053525 16 51 0.0 0.0 0.00 0.00 0.00 99 1011.3
20260510053521 16 51 0.0 0.0 0.00 0.00 0.00 98 1011.4
20260510052455 16 51 0.0 0.0 0.00 0.00 0.00 99 1011.5
20260510051948 16 51 0.0 0.0 0.00 0.00 0.00 98 1011.6
20260510051437 16 51 0.0 0.0 0.00 0.00 0.00 98 1011.6
20260510051429 16 51 0.0 0.0 0.00 0.00 0.00 98 1011.6
20260510050839 16 51 0.0 0.0 0.00 0.00 0.00 98 1011.8
20260510050443 16 51 0.0 0.0 0.00 0.00 0.00 98 1011.5
20260510045942 16 51 0.0 0.0 0.00 0.00 0.00 98 1011.7
20260510045440 16 51 0.0 0.0 0.00 0.00 0.00 98 1011.7
20260510044255 16 51 0.0 0.0 0.00 0.00 0.00 98 1011.7
20260510043755 16 51 0.0 0.0 0.00 0.00 0.00 98 1011.7
20260510043255 16 51 0.0 0.0 0.00 0.00 0.00 98 1011.7
20260510042737 16 51 0.0 0.0 0.00 0.00 0.00 98 1011.6
20260510042228 16 51 0.0 0.0 0.00 0.00 0.00 98 1011.6
20260510042137 16 51 0.0 0.0 0.00 0.00 0.00 98 1011.5
20260510041741 16 51 0.0 0.0 0.00 0.00 0.00 98 1011.6
20260510040559 16 51 0.0 0.0 0.00 0.00 0.00 98 1011.6
20260510040031 16 51 0.0 0.0 0.00 0.00 0.00 98 1011.5
20260510035531 16 51 0.0 0.0 0.00 0.00 0.00 98 1011.4
20260510035023 16 51 0.0 0.0 0.00 0.00 0.00 98 1011.3
20260510034515 16 51 0.0 0.0 0.00 0.00 0.00 98 1011.3
20260510034511 16 51 0.0 0.0 0.00 0.00 0.00 98 1011.3
20260510033925 16 51 0.0 0.0 0.00 0.00 0.00 97 1011.3
20260510033528 16 51 0.0 0.0 0.00 0.00 0.00 97 1011.3
20260510032421 16 51 0.0 0.0 0.00 0.00 0.00 97 1011.3
20260510031851 17 51 0.0 0.0 0.00 0.00 0.00 97 1011.2
20260510031349 17 51 0.0 0.0 0.00 0.00 0.00 97 1011.2
20260510030846 16 51 0.0 0.0 0.00 0.00 0.00 97 1011.2
20260510030341 17 51 0.0 0.0 0.00 0.00 0.00 97 1011.1
20260510025837 17 51 0.0 0.0 0.00 0.00 0.00 97 1011.1
20260510025829 17 51 0.0 0.0 0.00 0.00 0.00 96 1011.2
20260510024813 17 51 0.0 0.0 0.00 0.00 0.00 96 1011.1
20260510024305 17 51 0.0 0.0 0.00 0.00 0.00 96 1011.1
20260510023805 17 51 0.0 0.0 0.00 0.00 0.00 96 1011.1
20260510023249 17 51 0.0 0.0 0.00 0.00 0.00 96 1011.1
20260510022742 17 51 0.0 0.0 0.00 0.00 0.00 95 1011.1
20260510022243 17 51 0.0 0.0 0.00 0.00 0.00 96 1011.1
20260510021725 17 51 0.0 0.0 0.00 0.00 0.00 96 1011.1
20260510021225 17 51 0.0 0.0 0.00 0.00 0.00 95 1011.1
20260510020703 17 51 0.0 0.0 0.00 0.00 0.00 95 1010.9
20260510020203 17 51 0.0 0.0 0.00 0.00 0.00 95 1011.0
20260510015635 18 51 0.0 0.0 0.00 0.00 0.00 95 1011.1
20260510015133 18 51 0.0 0.0 0.00 0.00 0.00 94 1011.0
20260510014628 18 51 0.0 0.0 0.00 0.00 0.00 94 1010.9
20260510014103 18 51 0.0 0.0 0.00 0.00 0.00 94 1010.8
20260510013537 18 51 0.0 0.0 0.00 0.00 0.00 93 1010.6
20260510013016 18 51 0.0 0.0 0.00 0.00 0.00 93 1010.6
20260510012515 18 51 0.0 0.0 0.00 0.00 0.00 93 1010.5
20260510011927 18 51 0.0 0.0 0.00 0.00 0.00 93 1010.5
20260510011421 18 51 0.0 0.0 0.00 0.00 0.00 93 1010.4
20260510010921 18 51 0.0 0.0 0.00 0.00 0.00 93 1010.4
20260510010401 18 51 0.0 0.0 0.00 0.00 0.00 92 1010.4
20260510005843 18 51 0.0 0.0 0.00 0.00 0.00 92 1010.4
20260510005331 19 51 0.0 0.0 0.00 0.00 0.00 91 1010.3
20260510004829 19 51 0.0 0.0 0.00 0.00 0.00 90 1010.2
20260510004314 19 51 0.0 0.0 0.00 0.00 0.00 90 1010.2
20260510003737 19 51 0.0 0.0 0.00 0.00 0.00 90 1010.3
20260510003235 19 51 0.0 0.0 0.00 0.00 0.00 90 1010.2
20260510002733 20 51 0.0 0.0 0.00 0.00 0.00 89 1010.2
20260510002726 20 51 0.0 0.0 0.00 0.00 0.00 89 1010.3
20260510001726 20 51 0.0 0.0 0.00 0.00 0.00 88 1010.3
20260510001216 20 51 0.0 0.0 0.00 0.00 0.00 88 1010.4
20260510001212 20 51 0.0 0.0 0.00 0.00 0.00 88 1010.3
20260510000144 20 51 0.0 0.0 0.00 0.00 0.00 87 1010.2
20260509235641 20 51 0.0 0.0 0.00 0.00 0.00 87 1010.2
20260509235032 20 51 0.0 0.0 0.00 0.00 0.00 87 1010.2
20260509234531 21 51 0.0 0.0 0.00 0.00 0.00 86 1010.2
20260509234030 21 51 0.0 0.0 0.00 0.00 0.00 86 1010.1
20260509233531 21 51 0.0 0.0 0.00 0.00 0.00 85 1009.9
20260509233031 21 51 0.0 0.0 0.00 0.00 0.00 85 1009.7
20260509232529 21 51 0.0 0.0 0.00 0.00 0.00 84 1009.6
20260509232525 21 51 0.0 0.0 0.00 0.00 0.00 84 1009.7
20260509231525 21 51 0.0 0.0 0.00 0.00 0.00 84 1009.7
20260509231019 21 51 0.0 0.0 0.00 0.00 0.00 83 1009.6
20260509230519 22 51 0.0 0.0 0.00 0.00 0.00 83 1009.6
20260509230017 22 51 0.0 0.0 0.00 0.00 0.00 83 1009.7
20260509225515 22 51 0.0 0.0 0.00 0.00 0.00 82 1009.6
20260509225015 22 51 0.0 0.0 0.00 0.00 0.00 82 1009.4
20260509224514 22 51 0.0 0.0 0.00 0.00 0.00 82 1009.4
20260509223949 22 51 0.0 0.0 0.00 0.00 0.00 82 1009.5
20260509223444 22 51 0.0 0.0 0.00 0.00 0.00 82 1009.7
20260509222929 22 51 0.0 0.0 0.00 0.00 0.00 82 1009.6
20260509222429 22 51 0.0 0.0 0.00 0.00 0.00 81 1009.6
20260509221926 22 51 0.0 0.0 0.00 0.00 0.00 82 1009.7
20260509221421 22 51 0.0 0.0 0.00 0.00 0.00 82 1009.8
20260509220917 22 51 0.0 0.0 0.00 0.00 0.00 81 1009.8
20260509220828 22 51 0.0 0.0 0.00 0.00 0.00 81 1009.8
20260509215829 22 51 0.0 1.6 0.00 0.00 0.00 81 1009.6
20260509215825 22 51 0.0 1.6 0.00 0.00 0.00 80 1009.7
20260509214823 22 51 0.0 0.0 0.00 0.00 0.00 80 1009.7
20260509214314 22 51 0.0 1.6 0.00 0.00 0.00 80 1009.5
20260509213800 22 51 0.0 1.6 0.00 0.00 0.00 80 1009.4
20260509213747 22 35 0.0 1.6 0.00 0.00 0.00 82 1009.5
20260509212738 22 35 0.0 1.6 0.00 0.00 0.00 82 1009.6
20260509212236 22 35 0.0 0.0 0.00 0.00 0.00 81 1009.5
20260509211729 22 35 0.0 0.0 0.00 0.00 0.00 81 1009.5
20260509211228 22 35 0.0 1.6 0.00 0.00 0.00 81 1009.5
20260509210701 22 35 0.0 1.6 0.00 0.00 0.00 80 1009.5
20260509210133 22 35 0.0 1.6 0.00 0.00 0.00 81 1009.6
20260509205554 22 35 0.0 3.2 0.00 0.00 0.00 81 1009.3
20260509205543 22 35 0.0 4.8 0.00 0.00 0.00 80 1009.3
20260509204533 22 36 0.0 4.8 0.00 0.00 0.00 79 1009.3
20260509204030 22 156 0.0 0.0 0.00 0.00 0.00 80 1009.5
20260509203534 22 131 0.0 1.6 0.00 0.00 0.00 80 1009.3
20260509203530 22 131 0.0 0.0 0.00 0.00 0.00 81 1009.4
20260509202530 22 131 0.0 1.6 0.00 0.00 0.00 81 1009.3
20260509202030 21 41 0.0 1.6 0.00 0.00 0.00 81 1009.6
20260509201529 21 41 0.0 1.6 0.00 0.00 0.00 81 1009.6
20260509201026 21 142 0.0 1.6 0.00 0.00 0.00 81 1009.5
20260509200527 21 124 0.0 1.6 0.00 0.00 0.00 80 1009.6
20260509200523 21 124 0.0 1.6 0.00 0.00 0.00 79 1009.8
20260509195518 22 124 0.0 1.6 0.00 0.00 0.00 79 1009.8
20260509195016 22 124 0.0 1.6 0.00 0.00 0.00 79 1009.8
20260509194459 22 124 0.0 1.6 0.00 0.00 0.00 77 1009.8
20260509193954 22 124 0.0 1.6 0.00 0.00 0.00 76 1009.8
20260509193436 23 124 0.0 1.6 0.00 0.00 0.00 75 1009.9
20260509192930 23 124 0.0 1.6 0.00 0.00 0.00 73 1009.9
20260509192430 23 319 0.0 6.4 0.00 0.00 0.00 73 1010.0
20260509191931 23 36 0.0 6.4 0.00 0.00 0.00 71 1010.0
20260509191430 24 202 0.0 1.6 0.00 0.00 0.00 73 1010.1
20260509190929 23 222 0.0 0.0 0.00 0.00 0.00 71 1010.0
20260509190423 23 221 0.0 0.0 0.00 0.00 0.00 71 1010.0
20260509190417 23 248 0.0 0.0 0.00 0.00 0.00 72 1010.1
20260509185408 23 158 0.0 1.6 0.00 0.00 0.00 73 1010.1
20260509184856 22 129 0.0 1.6 0.00 0.00 0.00 74 1010.2
20260509184338 23 129 0.0 3.2 0.00 0.00 0.00 72 1010.3